Skip Page Navigation
NASA JPL Caltech
NASA Logo - Jet Propulsion Laboratory + View the NASA Portal
+ Center for Near-Earth Object Studies
JPL Home Earth Solar System Stars & Galaxies Technology
JPL Solar System Dynamics
BODIES ORBITS EPHEMERIDES TOOLS PHYSICAL DATA DISCOVERY FAQ SITE MAP
IMPORTANT: The SSD Announcement email list is now available. Major changes are coming in the near future, including possible hostname and/or URL changes. To be notified of such changes, subscribe to this email list.

Please visit this page for more details.


JPL Small-Body Database Browser
Search: [ help ]  
249254 (2008 SK2)
Classification: Main-belt Asteroid          SPK-ID: 2249254
Ephemeris | Orbit Diagram | Orbital Elements | Mission Design | Physical Parameters | Discovery Circumstances | Close-Approach Data ]

[ show orbit diagram ]
Orbital Elements at Epoch 2458600.5 (2019-Apr-27.0) TDB
Reference: JPL 14 (heliocentric ecliptic J2000)
 Element Value Uncertainty (1-sigma)   Units 
e .2183991174550808 4.7862e-08  
a 2.773292373723203 2.344e-08 au
q 2.167607766857149 1.3533e-07 au
i 7.830051558311605 6.405e-06 deg
node 193.9835916866261 4.3795e-05 deg
peri 211.1468584834631 4.6383e-05 deg
M 78.30639367969593 1.6568e-05 deg
tp 2458233.567114918962
(2018-Apr-25.06711492)
7.541e-05 TDB
period 1686.910000855076
4.62
2.1387e-05
5.855e-08
d
yr
n .213407946966655 2.7056e-09 deg/d
Q 3.378976980589256 2.856e-08 au
  Orbit Determination Parameters
   # obs. used (total)      219  
   data-arc span      8394 days (22.98 yr)  
   first obs. used      1996-02-18  
   last obs. used      2019-02-11  
   planetary ephem.      DE431  
   SB-pert. ephem.      SB431-N16  
   condition code      0  
   norm. resid. RMS      .62518  
   source      ORB  
   producer      Otto Matic  
   solution date      2019-Jul-14 11:09:05  

Additional Information
 Earth MOID = 1.1801 au 
 Jupiter MOID = 2.04587 au 
 T_jup = 3.288 
[ show covariance matrix ]

Ephemeris | Orbit Diagram | Orbital Elements | Mission Design | Physical Parameters | Discovery Circumstances | Close-Approach Data ]

Physical Parameter Table
Parameter Symbol Value Units Sigma Reference Notes
absolute magnitude H 16.5   n/a MPO382327  
diameter diameter 3.547 km 1.182 urn:nasa:pds:neowise_diameters_albedos::2.0[mainbelt] (http://adsabs.harvard.edu/abs/2011ApJ...741...68M)  
geometric albedo albedo 0.029   0.024 urn:nasa:pds:neowise_diameters_albedos::2.0[mainbelt] (http://adsabs.harvard.edu/abs/2011ApJ...741...68M)  

249254 (2008 SK2)          Discovered 2008-Sep-22 by Tucker, R. A. at Goodricke-Pigott
Reference: 20100824/Numbers.arcLast Updated: 2010-08-27

[ show close-approach data ]
Ephemeris | Orbit Diagram | Orbital Elements | Mission Design | Physical Parameters | Discovery Circumstances | Close-Approach Data ]
ABOUT SSD CREDITS/AWARDS PRIVACY/COPYRIGHT GLOSSARY LINKS
FirstGov 2019-Dec-06 20:59 UT
(server date/time)  
NASA Home Page
Site Manager:   Ryan S. Park
Webmaster  Alan B. Chamberlin